星链-31677 (STARLINK-31677 )

导读 | 星芒AI

STARLINK-31677 是 SpaceX Starlink 卫星互联网项目中的一颗低轨卫星,属于第 11 批部署的星链卫星之一。该卫星于 2023 年发射,运行在约 550 公里的轨道高度,旨在为全球提供高速、低延迟的互联网服务。作为星链星座的一部分,STARLINK-31677 与其他卫星协同工作,支持偏远地区的网络接入,并增强整体网络的覆盖与稳定性。该卫星采用先进的推进和通信技术,具备自主变轨和避障能力,是 SpaceX 打造全球宽带网络的重要组成部分。

基本信息
目录编号:
59749
目录名称:
STARLINK-31677
国际标识:
2024-090V
轨道中心:
EARTH
卫星名称:
星链-31677
卫星全名:
星链-31677 (STARLINK-31677 )
卫星状态:
在轨 (已飞行586 天)
发射日期:
2024-05-13 UTC
国别 :
美国 (US)
星等 :
--
轨道信息
数据来源 国际轨道数据 AOE轨道数据
星历时间 2025-12-20T03:56:13+0800
6小时前
查看轨道信息
2025-12-13T20:00:00+0800
6天前
查看轨道信息
半长轴 6861.176km 6861.155km
偏心率 0.0000326 0.0001872
轨道倾角 43.002° 43.001°
近地点辐角 315.190° 265.633°
升交点赤经 274.761° 310.521°
平近点角 44.893° 159.269°
近地点 482.815km 481.735km
远地点 483.263km 484.305km
周期 94.267分钟 94.266分钟
每日圈数 15.275835 15.275904
详细信息
固有亮度:
5
最大亮度:
1.5
卫星平台:
Starlink v2.0 mini
覆盖范围:
全球
运营商:
太空探索技术公司
运营商所在国:
美国
制造商(研发单位):
太空探索技术公司
制造商所在国:
美国
使用方式:
暂无
卫星简介
星链(Starlink)计划是由太空探索技术公司(SpaceX)提出的一个巨型低轨卫星互联网星座项目,计划在2019年至2024年间在太空搭建由约1.2万颗卫星组成的“星链”网络,其中1584颗将部署在地球上空550千米处的近地轨道,并从2020年开始工作。该卫星仍在工作。
2D轨道图
3D轨道图
轨道高度分析图
轨道倾角分析图
轨道综合分析图
查看轨道综合分析图